Location: Anjeux
(47.8815°N, 6.2076°E)
Time: 18:43:54
(UTC+00:00)

Cosmos 2333 Rocket - Pass Details

Date: 05 March 2021
Orbit: 837 x 864 km, 70.8° (Epoch: 14 April)

Event Time Altitude Azimuth Distance (km) Brightness Sun altitude
Rises 05:09:58 0° 327° (NNW) 3,449 5.1 -10.6°
Reaches altitude 10° 05:12:31 10° 322° (NW) 2,510 4.3 -10.1°
Maximum altitude 05:17:59 45° 251° (WSW) 1,159 2.5 -9.2°
Drops below altitude 10° 05:23:25 10° 180° (S) 2,498 4.7 -8.3°
Sets 05:25:57 0° 175° (S) 3,430 5.4 -7.9°
